sat.trackr.live / text

‹ back to catalog

STARLINK-34419

NORAD 64412 · 2025-129A

PAYLOAD ACTIVE UNKNOWN

§ Identity

Operator
Country
US
Launch date
2025-06-17
Launch site
AFWTR
Launch vehicle
Mass (kg)
RCS (m²)

Purposes: comms

External: N2YO · Heavens-Above · Gunter

§ Orbital elements

Epoch: 2026-09-20T12:18:23.092128Z

Period
94.14 min
Inclination
70.0006°
Eccentricity
0.0003638
Mean motion
15.29589142 rev/d
Perigee alt
474.5 km
Apogee alt
479.5 km
Semi-major
6,855.2 km
B*
1.8918e-4
RAAN
301.0885°
Arg perigee
270.1302°
Mean anomaly
89.9456°
Rev number
7,054

§ Raw data

STARLINK-344191 64412U 25129A   26263.51276727  .00005316  00000+0  18918-3 0  99962 64412  70.0006 301.0885 0003638 270.1302  89.9456 15.29589142 70545

JSON: /api/v1/satellites/64412 · /tle

For live sub-satellite position, see the globe view (requires WebGL).

§ Visibility from observer

Set your observer location to see the next 7 days of passes ≥ 10°. The values pass through the URL so the page stays shareable.

No JS? Fill the form by hand. The geolocation button needs JavaScript.